カタログに戻る

THORAD DELTA 1 DEB

運用中SSO
NORAD 9985·DEBRIS·🇺🇸 United States

打ち上げ Nov 15, 1974 から Vandenberg Space Force Base

Loading…

次のパス (今後24時間)

TLE

最新Source: Space-Track

元期: Sep 13, 2026, 09:20 UTC

1 09985U 74089EC  26256.38933872 -.00000011  00000-0  23324-3 0  9993
2 09985 102.0027 221.0245 0047661 220.3523 294.9555 12.49105942363493

AllMySatでTHORAD DELTA 1 DEBをリアルタイム追跡

Download on the App Store